Weather Roundup
Issued by NWS

Home | Current Version | Previous Version | Graphics & Text | Print | Product List | Glossary Off
Versions: 1 2 3 4 5 6 7 8 9 10 11 12 13 14 15 16 17 18 19 20 21 22 23 24 25 26 27 28 29 30 31 32 33 34 35 36 37 38 39 40 41 42 43 44 45 46 47 48 49 50

000
NZUS93 KARX 211010
HRRWXR

CURRENT HOURLY OBSERVATIONS ACROSS
MUCH OF THE UPPER MISSISSIPPI VALLEY
NATIONAL WEATHER SERVICE LA CROSSE WI
500 AM CDT TUE APR 21 2015


...SOUTHEAST MINNESOTA...


CITY           SKY/WX    TMP DP  RH WIND       PRES   REMARKS
ROCHESTER      CLOUDY    35  28  75 W22G28    29.54S WCI  23
ROCHESTER/MAYO CLOUDY    36  29  77 W16G29    29.53F WCI  26
WINONA         CLOUDY    36  30  80 NW10G21   29.53S WCI  28
AUSTIN         CLOUDY    36  28  75 W16G25    29.58S WCI  26
ALBERT LEA     MOCLDY    36  28  75 W9G24     29.60R WCI  29
DODGE CENTER   CLOUDY    36  28  75 W21G28    29.54S WCI  24
PRESTON        CLOUDY    34  26  72 W22G29    29.55F WCI  23
OWATONNA       CLOUDY    36  28  75 W23G32    29.57S WCI  24
FARIBAULT      CLOUDY    36  28  75 W17G25    29.56S WCI  25
$$

...ELSEWHERE IN MINNESOTA...


CITY           SKY/WX    TMP DP  RH WIND       PRES   REMARKS
MINNEAPOLIS    CLOUDY    37  25  61 W21G29    29.53R WCI  26
INTNL FALLS    LGT SNOW  28  25  88 NW15G23   29.39R FOG     WCI  16
DULUTH         LGT SNOW  31  27  85 W15G23    29.35R FOG     WCI  20
RED WING       CLOUDY    37  27  65 NW12G23   29.51S WCI  30
REDWOOD FALLS  MOCLDY    35  27  72 W22G30    29.63S WCI  23
MANKATO        CLOUDY    36  25  64 W17G26    29.60S WCI  25
WORTHINGTON    CLEAR     30  21  69 W13       29.68F WCI  20
FAIRMONT       CLOUDY    36  25  64 W14       29.65S WCI  27
$$

...SOUTHWEST WISCONSIN...


CITY           SKY/WX    TMP DP  RH WIND       PRES   REMARKS
LA CROSSE      CLOUDY    39  30  70 W21       29.52F WCI  29
PRAIRIE DU CHI CLOUDY    40  28  61 W20G29    29.57S WCI  31
BOSCOBEL       CLOUDY    41  29  62 SW8       29.55F
LONE ROCK      CLOUDY    39  29  67 W13G29    29.53S WCI  31
PLATTEVILLE    CLOUDY    38  32  77 W16G23    29.57S WCI  29
FORT MC COY    CLOUDY    36  29  78 W7G16     29.50S WCI  30
CAMP DOUGLAS   FLURRIES  34  34 100 W10       29.47F WCI  26
VIROQUA        CLOUDY    34  32  90 W12       29.51S WCI  26
WIS DELLS      MIX PCPN  35  31  87 W9        29.49F WCI  28
$$

...ELSEWHERE IN WISCONSIN...


CITY           SKY/WX    TMP DP  RH WIND       PRES   REMARKS
MILWAUKEE      MOCLDY    39  29  67 SW17      29.51S WCI  30
MADISON        MOCLDY    39  28  64 W8G16     29.51R WCI  33
GREEN BAY      CLOUDY    38  31  76 W13       29.41S WCI  30
EAU CLAIRE     CLOUDY    34  29  82 W12       29.47R WCI  25
BLACK RVR FLS  CLOUDY    35  33  93 W9        29.48F WCI  27
MEDFORD        LGT SNOW  31  30  94 W14       29.38F WCI  21
WAUSAU         LGT SNOW  33  29  85 W16G25    29.38R FOG     WCI  23
WIS RAPIDS     FLURRIES  34  30  85 W10       29.45S WCI  26
MARSHFIELD     LGT SNOW  33  30  88 W14G22    29.42S FOG     WCI  23
RICE LAKE      LGT SNOW  32  30  92 W10       29.46R WCI  24
$$

...NORTHEAST IOWA...


CITY           SKY/WX    TMP DP  RH WIND       PRES   REMARKS
DECORAH        CLOUDY    37  28  70 W12G20    29.56S WCI  30
MASON CITY     CLEAR     34  27  75 W18       29.65S WCI  23
CHARLES CITY   CLOUDY    37  30  75 W18G25    29.63R WCI  27
OELWEIN        CLOUDY    37  30  75 W17       29.63R WCI  28
$$

...ELSEWHERE IN IOWA...


CITY           SKY/WX    TMP DP  RH WIND       PRES   REMARKS
DES MOINES     CLEAR     38  21  50 W6        29.76R WCI  33
IOWA CITY      CLEAR     38  30  73 W10       29.71R WCI  31
FORT DODGE     CLEAR     36  25  64 W7        29.72S WCI  30
$$

...NORTHERN ILLINOIS...


CITY           SKY/WX    TMP DP  RH WIND       PRES   REMARKS
CHICAGO-OHARE  CLEAR     39  30  70 W14G24    29.58F WCI  31
CHICAGO-MIDWAY CLEAR     42  31  64 SW13      29.61S
MOLINE         CLEAR     38  30  73 W10       29.68R WCI  31
ROCKFORD       MOCLDY    39  29  67 W15       29.61R WCI  31
PEORIA         CLEAR     40  29  64 SW6       29.72R
$$

NOTE: "FAIR" INDICATES FEW OR NO CLOUDS BELOW 12,000 FEET WITH NO
SIGNIFICANT WEATHER AND/OR OBSTRUCTIONS TO VISIBILITY. WIND
SPEEDS ARE IN MILES-PER-HOUR.



USA.gov is the U.S. government's official web portal to all federal, state and local government web resources and services.